User: anonymous   Login
Location: Unspecified
(0.0000°N, 0.0000°E)
Time: 08:36:48
(UTC+00:00)
Language:

Triad OI-1X - Orbit

View from above orbital plane
View from above orbital plane
View from above satellite
View from above satellite

Ground track
Ground track

The orbit data is extracted from the following two-line orbital elements,

1  6173U 72069A   19345.57264282  .00000096  00000-0  21598-4 0  9993
2  6173  89.9122 218.7361 0050714 239.1058 183.1601 14.48991030485920
Epoch (UTC): 11 December 2019 13:44:36
Eccentricity: 0.0050714
inclination: 89.9122°
perigee height: 693 km
apogee height: 765 km
right ascension of ascending node: 218.7361°
argument of perigee: 239.1058°
revolutions per day: 14.48991030
mean anomaly at epoch: 183.1601°
orbit number at epoch: 48592

The dashed part of the orbit path shows where the satellite is in the earth's shadow,  

DLR